User: anonymous   Login
Location: Raleigh
(35.7720°N, 78.6390°W)
Time: 14:15:42
(UTC-04:00)
Language:

JAS-2 - Orbit

View from above orbital plane
View from above orbital plane
View from above satellite
View from above satellite

Ground track
Ground track

The orbit data is extracted from the following two-line orbital elements,

1 24278U 96046B   15115.20767517  .00000015  00000-0  52077-4 0  9997
2 24278 098.5355 091.1805 0349970 208.0372 221.7532 13.53049840922864
Epoch (UTC): 25 April 2015 04:59:03
Eccentricity: 0.0349970
inclination: 98.5355°
perigee height: 801 km
apogee height: 1321 km
right ascension of ascending node: 91.1805°
argument of perigee: 208.0372°
revolutions per day: 13.53049840
mean anomaly at epoch: 221.7532°
orbit number at epoch: 92286

The dashed part of the orbit path shows where the satellite is in the earth's shadow,  

DLR